Regional Weather Roundup
Issued by NWS

Home | Current Version | Previous Version | Graphics & Text | Print | Product List | Glossary On
Versions: 1 2 3 4 5 6 7 8 9 10 11 12 13 14 15 16 17 18 19 20 21 22 23 24 25 26 27 28 29 30 31 32 33 34 35 36 37 38 39 40 41 42 43 44 45 46 47 48 49 50
000
ASUS44 KMEG 240410
RWRTN
TENNESSEE HOURLY STATE WEATHER ROUNDUP
NATIONAL WEATHER SERVICE MEMPHIS TN
1100 PM CDT THU MAR 23 2017

TNZ002-004-019-021-049-052-054-088>092-240500-
WEST TENNESSEE

CITY           SKY/WX    TMP DP  RH WIND       PRES   REMARKS
MEMPHIS INTL   CLEAR     72  53  51 S15       30.10S
NWS MEMPHIS      N/A     71 N/A N/A MISG        N/A
JACKSON        CLEAR     69  51  52 S6        30.14S
DYERSBURG      CLEAR     68  52  56 S6        30.11F
SOMERVILLE     CLEAR     70  52  52 S8G14     30.12S
BOLIVAR        PTCLDY    66  52  59 SE8       30.14S
PARIS          CLEAR     63  46  55 S12       30.14F
HUNTINGDON     PTCLDY    66  50  55 S9        30.13F
SAVANNAH       CLOUDY    68  52  56 S8        30.17S
$$

TNZ008-025-027-028-033-062-065-066-240500-
NORTH MIDDLE TENNESSEE

CITY           SKY/WX    TMP DP  RH WIND       PRES   REMARKS
NASHVILLE      CLEAR     63  42  46 S14       30.22F
PORTLAND       CLEAR     59  43  55 S13G18    30.21F
CLARKSVILLE    CLEAR     60  43  53 S8        30.16F
SMYRNA         CLEAR     62  43  49 SE14      30.25S
COOKEVILLE     MOCLDY    57  37  47 S13       30.28S
GALLATIN       PTCLDY    59  43  55 SE9       30.25F
CROSSVILLE     CLEAR     53  35  50 S10G20    30.33R
$$

TNZ061-075-076-078-094-096-097-240500-
SOUTH MIDDLE TENNESSEE

CITY           SKY/WX    TMP DP  RH WIND       PRES   REMARKS
FAYETTEVILLE   PTCLDY    61  46  59 S15G26    30.28S
TULLAHOMA      CLEAR     57  37  47 SE15      30.29S
WINCHESTER     CLEAR     57  39  51 SE15      30.30S
MCMINNVILLE    CLEAR     57  39  51 S5        30.29S
COLUMBIA       CLEAR     63  46  55 S12       30.20F
SHELBYVILLE    CLEAR     63  45  51 S13       30.27S
$$

TNZ017-018-042-046-047-240500-
NORTHEAST TENNESSEE

CITY           SKY/WX    TMP DP  RH WIND       PRES   REMARKS
TRI CITIES     MOCLDY    52  26  36 S7        30.37S
ELIZABETHTON   PTCLDY    48  27  43 E6        30.39S
$$

TNZ012-013-036-069-073-074-240500-
CENTRAL EAST TENNESSEE

CITY           SKY/WX    TMP DP  RH WIND       PRES   REMARKS
KNOXVILLE      PTCLDY    54  39  57 SW9       30.34R
OAK RIDGE      CLEAR     58  35  42 VRB6      30.36S
DOWNTOWN KNOXV PTCLDY    50  46  87 CALM      30.34S
GATLINBURG     CLEAR     48  41  76 CALM      30.34S
MORRISTOWN     MOCLDY    54  30  40 NW7       30.33S
JACKSBORO      CLEAR     59  37  44 S12G21    30.35S
$$

TNZ083-085-099-240500-
SOUTHEAST TENNESSEE

CITY           SKY/WX    TMP DP  RH WIND       PRES   REMARKS
CHATTANOOGA    PTCLDY    59  35  40 S12       30.37R
$$

SKY/WX REPORTED AS FAIR MEANS FEW OR NO CLOUDS BELOW
12 THOUSAND FEET.





USA.gov is the U.S. government's official web portal to all federal, state and local government web resources and services.